• In Portugal
  • List of Countries
  • For 7 days
  • Water Temperature
  • Satellite Maps
  • Weather Map
  • Weather Widgets
  • user-avatar
    Login

    Hourly Weather Antalya

    Today, 20 October, Friday

    Time Temperature Precipitation Wind Pressure Humidity
    00:00 +22°C° 0 mm 1 mps 757 mmHg 41%
    01:00 +21°C° 0 mm 1 mps 757 mmHg 41%
    02:00 +21°C° 0 mm 1 mps 757 mmHg 40%
    03:00 +21°C° 0 mm 1 mps 757 mmHg 40%
    04:00 +21°C° 0 mm 1 mps 757 mmHg 40%
    05:00 +21°C° 0 mm 1 mps 757 mmHg 41%
    06:00 +22°C° 0 mm 1 mps 757 mmHg 38%
    07:00 +24°C° 0 mm 1 mps 758 mmHg 35%
    08:00 +26°C° 0 mm 1 mps 758 mmHg 33%
    09:00 +27°C° 0 mm 1 mps 758 mmHg 30%
    10:00 +28°C° 0 mm 1 mps 758 mmHg 26%
    11:00 +30°C° 0 mm 1 mps 758 mmHg 23%
    12:00 +30°C° 0 mm 2 mps 757 mmHg 23%
    13:00 +30°C° 0 mm 2 mps 757 mmHg 22%
    14:00 +30°C° 0 mm 2 mps 757 mmHg 22%
    15:00 +29°C° 0 mm 2 mps 757 mmHg 27%
    16:00 +27°C° 0 mm 2 mps 757 mmHg 31%
    17:00 +25°C° 0 mm 1 mps 757 mmHg 36%
    18:00 +24°C° 0 mm 1 mps 757 mmHg 38%
    19:00 +24°C° 0 mm 1 mps 757 mmHg 40%
    20:00 +23°C° 0 mm 1 mps 757 mmHg 41%
    21:00 +22°C° 0 mm 1 mps 757 mmHg 41%
    22:00 +22°C° 0 mm 1 mps 757 mmHg 40%
    23:00 +22°C° 0 mm 1 mps 757 mmHg 40%

    Tomorrow, 21 October, Saturday

    Time Temperature Precipitation Wind Pressure Humidity
    00:00 +22°C° 0 mm 1 mps 757 mmHg 40%
    01:00 +22°C° 0 mm 1 mps 757 mmHg 39%
    02:00 +21°C° 0 mm 1 mps 757 mmHg 39%
    03:00 +21°C° 0 mm 1 mps 757 mmHg 39%
    04:00 +21°C° 0 mm 1 mps 757 mmHg 39%
    05:00 +21°C° 0 mm 1 mps 757 mmHg 39%
    06:00 +22°C° 0 mm 1 mps 757 mmHg 37%
    07:00 +24°C° 0 mm 1 mps 757 mmHg 35%
    08:00 +25°C° 0 mm 1 mps 757 mmHg 33%
    09:00 +27°C° 0 mm 1 mps 757 mmHg 30%
    10:00 +28°C° 0 mm 1 mps 757 mmHg 26%
    11:00 +30°C° 0 mm 1 mps 757 mmHg 23%
    12:00 +30°C° 0 mm 2 mps 756 mmHg 23%
    13:00 +30°C° 0 mm 2 mps 756 mmHg 23%
    14:00 +30°C° 0 mm 2 mps 755 mmHg 23%
    15:00 +29°C° 0 mm 2 mps 755 mmHg 29%
    16:00 +27°C° 0 mm 2 mps 755 mmHg 34%
    17:00 +25°C° 0 mm 1 mps 755 mmHg 40%
    18:00 +24°C° 0 mm 1 mps 755 mmHg 42%
    19:00 +23°C° 0 mm 1 mps 755 mmHg 45%
    20:00 +22°C° 0 mm 1 mps 755 mmHg 47%
    21:00 +22°C° 0 mm 1 mps 756 mmHg 46%
    22:00 +22°C° 0 mm 1 mps 756 mmHg 45%
    23:00 +22°C° 0 mm 1 mps 756 mmHg 44%

    Day after tomorrow, 22 October, Sunday

    Time Temperature Precipitation Wind Pressure Humidity
    00:00 +22°C° 0 mm 1 mps 755 mmHg 43%
    01:00 +22°C° 0 mm 1 mps 755 mmHg 43%
    02:00 +21°C° 0 mm 1 mps 755 mmHg 43%
    03:00 +21°C° 0 mm 1 mps 755 mmHg 43%
    04:00 +21°C° 0 mm 1 mps 755 mmHg 43%
    05:00 +21°C° 0 mm 1 mps 755 mmHg 43%
    06:00 +22°C° 0 mm 1 mps 755 mmHg 40%
    07:00 +23°C° 0 mm 1 mps 755 mmHg 38%
    08:00 +25°C° 0 mm 1 mps 755 mmHg 35%
    09:00 +26°C° 0 mm 1 mps 755 mmHg 32%
    10:00 +28°C° 0 mm 1 mps 755 mmHg 29%
    11:00 +29°C° 0 mm 1 mps 755 mmHg 26%
    12:00 +29°C° 0 mm 1 mps 754 mmHg 26%
    13:00 +29°C° 0 mm 2 mps 754 mmHg 26%
    14:00 +30°C° 0 mm 2 mps 753 mmHg 26%
    15:00 +28°C° 0 mm 2 mps 753 mmHg 32%
    16:00 +26°C° 0 mm 2 mps 753 mmHg 37%
    17:00 +25°C° 0 mm 1 mps 753 mmHg 43%
    18:00 +24°C° 0 mm 1 mps 753 mmHg 47%
    19:00 +23°C° 0 mm 1 mps 754 mmHg 50%
    20:00 +20°C° 0 mm 0 mps 754 mmHg 54%
    21:00 +21°C° 0 mm 1 mps 754 mmHg 53%
    22:00 +21°C° 0 mm 1 mps 754 mmHg 53%
    23:00 +21°C° 0 mm 1 mps 754 mmHg 53%

    23 October, Monday

    Time Temperature Precipitation Wind Pressure Humidity
    00:00 +20°C° 0 mm 1 mps 754 mmHg 53%
    01:00 +20°C° 0 mm 1 mps 754 mmHg 52%
    02:00 +20°C° 0 mm 1 mps 754 mmHg 52%
    03:00 +20°C° 0 mm 1 mps 754 mmHg 51%
    04:00 +20°C° 0 mm 1 mps 753 mmHg 51%
    05:00 +19°C° 0 mm 1 mps 753 mmHg 50%
    06:00 +21°C° 0 mm 1 mps 753 mmHg 46%
    07:00 +22°C° 0 mm 1 mps 754 mmHg 42%
    08:00 +24°C° 0 mm 1 mps 754 mmHg 38%
    09:00 +25°C° 0 mm 1 mps 754 mmHg 36%
    10:00 +26°C° 0 mm 2 mps 753 mmHg 35%
    11:00 +27°C° 0 mm 2 mps 753 mmHg 33%
    12:00 +27°C° 0 mm 3 mps 753 mmHg 35%
    13:00 +27°C° 0 mm 3 mps 752 mmHg 38%
    14:00 +27°C° 0 mm 3 mps 752 mmHg 40%
    15:00 +26°C° 0 mm 3 mps 752 mmHg 48%
    16:00 +24°C° 0 mm 2 mps 752 mmHg 56%
    17:00 +23°C° 0 mm 2 mps 752 mmHg 64%
    18:00 +21°C° 0 mm 2 mps 752 mmHg 70%
    19:00 +22°C° 0 mm 1 mps 752 mmHg 75%
    20:00 +21°C° 0 mm 1 mps 753 mmHg 81%
    21:00 +21°C° 0 mm 1 mps 753 mmHg 80%
    22:00 +21°C° 0 mm 1 mps 752 mmHg 80%
    23:00 +19°C° 0 mm 2 mps 752 mmHg 80%

    24 October, Tuesday

    Time Temperature Precipitation Wind Pressure Humidity
    00:00 +19°C° 0.1 mm 2 mps 752 mmHg 78%
    01:00 +19°C° 0.1 mm 2 mps 752 mmHg 77%
    02:00 +19°C° 0.1 mm 2 mps 752 mmHg 76%
    03:00 +19°C° 0.2 mm 2 mps 752 mmHg 75%
    04:00 +19°C° 0.2 mm 2 mps 752 mmHg 75%
    05:00 +19°C° 0.2 mm 2 mps 752 mmHg 74%
    06:00 +19°C° 0.2 mm 2 mps 752 mmHg 74%
    07:00 +19°C° 0.2 mm 2 mps 752 mmHg 74%
    08:00 +20°C° 0.2 mm 2 mps 752 mmHg 74%
    09:00 +20°C° 0.5 mm 3 mps 752 mmHg 73%
    10:00 +21°C° 0.5 mm 3 mps 752 mmHg 71%
    11:00 +21°C° 0.5 mm 4 mps 752 mmHg 70%
    12:00 +21°C° 1.3 mm 4 mps 751 mmHg 71%
    13:00 +21°C° 1.3 mm 4 mps 751 mmHg 73%
    14:00 +21°C° 1.3 mm 4 mps 751 mmHg 75%
    15:00 +20°C° 1.2 mm 4 mps 751 mmHg 78%
    16:00 +20°C° 1.2 mm 3 mps 751 mmHg 82%
    17:00 +19°C° 1.2 mm 3 mps 751 mmHg 85%
    18:00 +19°C° 1 mm 3 mps 751 mmHg 86%
    19:00 +19°C° 1 mm 4 mps 751 mmHg 87%
    20:00 +19°C° 1 mm 4 mps 751 mmHg 88%
    21:00 +19°C° 3.8 mm 4 mps 751 mmHg 89%
    22:00 +19°C° 3.8 mm 5 mps 751 mmHg 90%
    23:00 +19°C° 3.8 mm 5 mps 751 mmHg 90%

    25 October, Wednesday

    Time Temperature Precipitation Wind Pressure Humidity
    00:00 +19°C° 6.4 mm 5 mps 751 mmHg 90%
    01:00 +19°C° 6.4 mm 5 mps 751 mmHg 90%
    02:00 +19°C° 6.4 mm 5 mps 751 mmHg 89%
    03:00 +19°C° 4.4 mm 5 mps 751 mmHg 90%
    04:00 +19°C° 4.4 mm 5 mps 751 mmHg 90%
    05:00 +19°C° 4.4 mm 4 mps 751 mmHg 90%
    06:00 +20°C° 3 mm 4 mps 752 mmHg 88%
    07:00 +20°C° 3 mm 4 mps 752 mmHg 86%
    08:00 +20°C° 3 mm 4 mps 752 mmHg 84%
    09:00 +21°C° 2.3 mm 4 mps 753 mmHg 78%
    10:00 +21°C° 2.3 mm 4 mps 753 mmHg 72%
    11:00 +22°C° 2.3 mm 4 mps 753 mmHg 66%
    12:00 +22°C° 0.6 mm 4 mps 753 mmHg 64%
    13:00 +22°C° 0.6 mm 4 mps 753 mmHg 61%
    14:00 +23°C° 0.6 mm 4 mps 753 mmHg 59%
    15:00 +22°C° 0.3 mm 4 mps 754 mmHg 63%
    16:00 +21°C° 0.3 mm 3 mps 754 mmHg 67%
    17:00 +20°C° 0.3 mm 3 mps 755 mmHg 71%
    18:00 +19°C° 0.4 mm 3 mps 755 mmHg 74%
    19:00 +19°C° 0.4 mm 2 mps 756 mmHg 77%
    20:00 +18°C° 0.4 mm 2 mps 756 mmHg 79%
    21:00 +18°C° 0.4 mm 2 mps 756 mmHg 80%
    22:00 +19°C° 0.4 mm 1 mps 757 mmHg 81%
    23:00 +18°C° 0.4 mm 1 mps 757 mmHg 81%
    Show more